QPF
0.05 0.04 0.07 0.10 0.08 0.06 0.06 0.05 0.06 0.07 0.09 0.10 0.07 0.09 0.14 0.16 0.15 0.17 0.17 0.15 0.15 0.14 0.14 0.15 0.13 0.09 0.08 0.08 0.08 0.08 0.07 0.07 0.06 0.04 0.03 0.03 0.03 0.03 0.03 0.03 0.02 0.01 0.02
0.07 0.05 0.04 0.06 0.06 0.04 0.04 0.05 0.08 0.10 0.09 0.08 0.06 0.08 0.13 0.16 0.19 0.20 0.21 0.16 0.13 0.11 0.12 0.13 0.12 0.10 0.09 0.09 0.08 0.06 0.07 0.06 0.05 0.05 0.05 0.04 0.04 0.04 0.05 0.04 0.03 0.02 0.02
0.07 0.06 0.05 0.03 0.03 0.03 0.03 0.04 0.06 0.08 0.08 0.06 0.05 0.07 0.09 0.10 0.12 0.16 0.18 0.16 0.13 0.12 0.15 0.14 0.13 0.11 0.09 0.08 0.08 0.07 0.06 0.05 0.06 0.06 0.07 0.07 0.05 0.05 0.05 0.04 0.03 0.02 0.02
0.07 0.07 0.06 0.04 0.03 0.03 0.04 0.04 0.05 0.06 0.07 0.06 0.06 0.08 0.07 0.08 0.11 0.12 0.14 0.13 0.14 0.11 0.10 0.12 0.12 0.11 0.11 0.09 0.08 0.08 0.07 0.06 0.06 0.07 0.07 0.08 0.07 0.06 0.05 0.04 0.03 0.03 0.03
0.07 0.07 0.06 0.04 0.05 0.06 0.06 0.05 0.06 0.06 0.06 0.06 0.05 0.05 0.05 0.05 0.07 0.08 0.09 0.10 0.11 0.12 0.10 0.09 0.10 0.11 0.11 0.11 0.10 0.10 0.09 0.09 0.09 0.09 0.09 0.09 0.09 0.08 0.06 0.04 0.04 0.04 0.04
0.07 0.06 0.05 0.05 0.06 0.08 0.08 0.08 0.09 0.07 0.06 0.04 0.04 0.04 0.05 0.05 0.06 0.07 0.06 0.08 0.10 0.09 0.09 0.09 0.08 0.09 0.12 0.11 0.10 0.09 0.10 0.11 0.11 0.11 0.11 0.11 0.11 0.11 0.08 0.05 0.04 0.04 0.04
0.06 0.06 0.06 0.06 0.07 0.08 0.08 0.07 0.07 0.07 0.06 0.06 0.06 0.05 0.05 0.07 0.07 0.07 0.07 0.08 0.07 0.07 0.08 0.10 0.12 0.12 0.09 0.09 0.09 0.08 0.09 0.10 0.12 0.14 0.16 0.17 0.15 0.13 0.11 0.08 0.06 0.05 0.04
0.09 0.10 0.10 0.09 0.09 0.09 0.09 0.07 0.07 0.07 0.06 0.07 0.07 0.06 0.05 0.07 0.08 0.07 0.08 0.07 0.07 0.06 0.08 0.11 0.13 0.14 0.12 0.08 0.06 0.07 0.09 0.11 0.12 0.14 0.16 0.16 0.15 0.15 0.16 0.14 0.11 0.08 0.08
0.12 0.12 0.12 0.12 0.12 0.10 0.08 0.07 0.06 0.06 0.05 0.06 0.06 0.05 0.04 0.05 0.06 0.07 0.08 0.08 0.07 0.07 0.07 0.09 0.11 0.12 0.13 0.11 0.09 0.09 0.10 0.09 0.11 0.13 0.13 0.10 0.09 0.09 0.11 0.13 0.15 0.13 0.11
0.14 0.12 0.10 0.10 0.09 0.08 0.08 0.07 0.07 0.06 0.05 0.04 0.05 0.04 0.04 0.04 0.05 0.06 0.07 0.08 0.10 0.11 0.09 0.07 0.10 0.15 0.15 0.12 0.10 0.10 0.10 0.09 0.09 0.11 0.12 0.10 0.09 0.09 0.11 0.11 0.12 0.12 0.11
0.16 0.13 0.11 0.08 0.07 0.07 0.06 0.05 0.05 0.04 0.03 0.03 0.02 0.03 0.04 0.04 0.04 0.06 0.07 0.08 0.11 0.11 0.10 0.08 0.09 0.10 0.13 0.13 0.09 0.08 0.09 0.08 0.08 0.08 0.08 0.08 0.08 0.08 0.12 0.12 0.11 0.11 0.11
0.13 0.11 0.08 0.06 0.06 0.05 0.04 0.04 0.04 0.03 0.03 0.02 0.02 0.02 0.03 0.05 0.06 0.06 0.06 0.08 0.09 0.11 0.10 0.08 0.08 0.08 0.10 0.12 0.09 0.09 0.08 0.07 0.06 0.05 0.06 0.07 0.07 0.07 0.08 0.10 0.12 0.10 0.11
0.08 0.06 0.05 0.05 0.05 0.05 0.05 0.05 0.04 0.04 0.03 0.03 0.02 0.02 0.03 0.03 0.04 0.04 0.04 0.05 0.05 0.06 0.06 0.06 0.07 0.09 0.09 0.08 0.07 0.08 0.09 0.09 0.07 0.06 0.05 0.05 0.06 0.07 0.06 0.07 0.09 0.10 0.10
0.06 0.05 0.05 0.05 0.04 0.04 0.05 0.05 0.05 0.05 0.04 0.03 0.02 0.02 0.03 0.03 0.04 0.04 0.04 0.05 0.04 0.02 0.03 0.04 0.04 0.05 0.06 0.06 0.06 0.06 0.06 0.07 0.06 0.06 0.05 0.04 0.04 0.05 0.05 0.05 0.07 0.08 0.08
0.04 0.04 0.05 0.05 0.04 0.03 0.03 0.04 0.03 0.03 0.03 0.03 0.02 0.01 0.01 0.02 0.02 0.03 0.04 0.05 0.05 0.03 0.02 0.02 0.03 0.03 0.02 0.02 0.03 0.03 0.05 0.06 0.05 0.06 0.06 0.05 0.04 0.04 0.04 0.04 0.05 0.06 0.06
0.05 0.06 0.05 0.04 0.03 0.02 0.02 0.02 0.02 0.02 0.02 0.02 0.02 0.01 0.01 0.01 0.01 0.02 0.03 0.04 0.05 0.05 0.04 0.03 0.04 0.03 0.03 0.03 0.04 0.03 0.04 0.07 0.06 0.05 0.05 0.06 0.04 0.03 0.03 0.04 0.03 0.04 0.04
0.04 0.04 0.04 0.04 0.03 0.02 0.01 0.01 0.01 0.01 0.01 0.02 0.02 0.01 0.01 0.01 0.01 0.01 0.02 0.02 0.03 0.04 0.04 0.04 0.03 0.04 0.05 0.05 0.06 0.05 0.04 0.04 0.05 0.06 0.05 0.06 0.06 0.05 0.05 0.03 0.03 0.02 0.03
0.06 0.05 0.05 0.05 0.05 0.04 0.03 0.02 0.01 0.01 0.01 0.01 0.01 0.01 0.01 0.01 0.01 0.00 0.01 0.01 0.01 0.02 0.03 0.03 0.04 0.04 0.04 0.06 0.08 0.08 0.07 0.05 0.04 0.05 0.05 0.05 0.05 0.07 0.06 0.05 0.03 0.03 0.03
0.07 0.06 0.05 0.04 0.05 0.04 0.03 0.03 0.02 0.01 0.01 0.01 0.01 0.01 0.01 0.01 0.01 0.01 0.01 0.01 0.01 0.02 0.02 0.02 0.02 0.03 0.03 0.06 0.07 0.09 0.09 0.09 0.07 0.06 0.04 0.03 0.03 0.05 0.08 0.07 0.05 0.04 0.03
0.06 0.06 0.05 0.04 0.03 0.03 0.02 0.02 0.01 0.01 0.00 0.00 0.01 0.02 0.02 0.01 0.01 0.01 0.01 0.00 0.01 0.01 0.01 0.02 0.02 0.02 0.03 0.04 0.04 0.06 0.07 0.08 0.08 0.07 0.05 0.03 0.02 0.03 0.04 0.05 0.05 0.04 0.03
0.03 0.04 0.04 0.03 0.02 0.02 0.02 0.01 0.01 0.00 0.00 0.00 0.00 0.01 0.01 0.02 0.02 0.01 0.01 0.01 0.01 0.01 0.01 0.02 0.02 0.03 0.05 0.03 0.02 0.03 0.04 0.05 0.05 0.06 0.07 0.04 0.03 0.02 0.03 0.04 0.04 0.05 0.04
0.04 0.03 0.03 0.02 0.01 0.01 0.02 0.01 0.01 0.00 0.00 0.00 0.00 0.01 0.01 0.01 0.01 0.01 0.01 0.01 0.01 0.01 0.02 0.02 0.02 0.04 0.06 0.05 0.03 0.02 0.03 0.04 0.04 0.04 0.06 0.05 0.04 0.03 0.02 0.02 0.03 0.04 0.05
0.05 0.05 0.04 0.03 0.03 0.03 0.03 0.02 0.01 0.00 0.00 0.00 0.00 0.01 0.01 0.01 0.01 0.01 0.01 0.01 0.01 0.01 0.02 0.02 0.02 0.03 0.03 0.04 0.04 0.02 0.02 0.03 0.03 0.04 0.07 0.07 0.05 0.04 0.03 0.02 0.03 0.03 0.03
0.04 0.04 0.05 0.04 0.03 0.03 0.03 0.02 0.02 0.01 0.01 0.00 0.00 0.01 0.01 0.01 0.01 0.01 0.01 0.01 0.00 0.01 0.01 0.02 0.02 0.01 0.01 0.02 0.02 0.02 0.02 0.03 0.03 0.03 0.05 0.07 0.06 0.05 0.03 0.02 0.02 0.01 0.02
0.03 0.05 0.04 0.03 0.03 0.02 0.02 0.01 0.01 0.02 0.02 0.01 0.00 0.00 0.01 0.01 0.01 0.02 0.01 0.01 0.01 0.01 0.01 0.01 0.01 0.01 0.00 0.00 0.01 0.02 0.02 0.03 0.03 0.02 0.03 0.05 0.07 0.05 0.04 0.03 0.03 0.02 0.02
0.03 0.04 0.03 0.03 0.03 0.02 0.02 0.01 0.01 0.02 0.01 0.01 0.01 0.00 0.01 0.01 0.01 0.01 0.01 0.01 0.01 0.01 0.01 0.01 0.01 0.00 0.01 0.01 0.01 0.01 0.02 0.02 0.03 0.03 0.03 0.04 0.05 0.05 0.05 0.05 0.04 0.03 0.02
MSLP
1014.66 1014.65 1014.59 1014.53 1014.54 1014.64 1014.82 1015.06 1015.31 1015.53 1015.68 1015.73 1015.69 1015.58 1015.45 1015.31 1015.20 1015.14 1015.13 1015.16 1015.21 1015.25 1015.29 1015.32 1015.34 1015.36 1015.39 1015.42 1015.48 1015.56 1015.67 1015.81 1016.00 1016.23 1016.51 1016.81 1017.13 1017.44 1017.70 1017.90 1018.02 1018.06 1018.06
1014.54 1014.51 1014.44 1014.40 1014.41 1014.51 1014.69 1014.92 1015.16 1015.37 1015.51 1015.55 1015.51 1015.40 1015.25 1015.09 1014.96 1014.87 1014.82 1014.82 1014.83 1014.87 1014.90 1014.94 1014.96 1014.99 1015.02 1015.05 1015.09 1015.16 1015.26 1015.39 1015.58 1015.82 1016.11 1016.43 1016.76 1017.06 1017.31 1017.48 1017.57 1017.58 1017.55
1014.31 1014.30 1014.27 1014.26 1014.31 1014.43 1014.61 1014.83 1015.05 1015.22 1015.33 1015.34 1015.28 1015.16 1015.00 1014.83 1014.68 1014.56 1014.49 1014.45 1014.44 1014.46 1014.48 1014.52 1014.56 1014.61 1014.66 1014.71 1014.78 1014.86 1014.96 1015.10 1015.30 1015.54 1015.82 1016.12 1016.42 1016.69 1016.90 1017.03 1017.07 1017.04 1016.98
1013.97 1013.99 1014.02 1014.09 1014.20 1014.36 1014.55 1014.75 1014.93 1015.06 1015.11 1015.08 1014.99 1014.85 1014.68 1014.52 1014.36 1014.24 1014.15 1014.09 1014.06 1014.06 1014.08 1014.12 1014.19 1014.26 1014.35 1014.45 1014.55 1014.67 1014.80 1014.96 1015.15 1015.38 1015.63 1015.89 1016.13 1016.33 1016.47 1016.54 1016.53 1016.46 1016.37
1013.50 1013.58 1013.70 1013.85 1014.04 1014.24 1014.45 1014.63 1014.76 1014.83 1014.82 1014.74 1014.62 1014.47 1014.31 1014.16 1014.03 1013.92 1013.84 1013.77 1013.73 1013.72 1013.73 1013.78 1013.86 1013.97 1014.11 1014.26 1014.42 1014.59 1014.76 1014.94 1015.13 1015.33 1015.52 1015.71 1015.87 1015.98 1016.03 1016.02 1015.94 1015.83 1015.72
1012.93 1013.08 1013.28 1013.52 1013.78 1014.04 1014.26 1014.41 1014.49 1014.49 1014.42 1014.30 1014.16 1014.01 1013.89 1013.78 1013.70 1013.63 1013.57 1013.52 1013.48 1013.46 1013.47 1013.52 1013.61 1013.76 1013.94 1014.15 1014.38 1014.60 1014.81 1015.01 1015.19 1015.34 1015.48 1015.57 1015.63 1015.63 1015.58 1015.47 1015.32 1015.16 1015.02
1012.32 1012.51 1012.78 1013.10 1013.42 1013.71 1013.93 1014.05 1014.08 1014.02 1013.89 1013.75 1013.60 1013.49 1013.42 1013.38 1013.37 1013.36 1013.35 1013.33 1013.30 1013.28 1013.28 1013.33 1013.44 1013.61 1013.84 1014.10 1014.38 1014.65 1014.90 1015.11 1015.27 1015.38 1015.44 1015.44 1015.39 1015.28 1015.11 1014.91 1014.68 1014.46 1014.28
1011.74 1011.95 1012.25 1012.61 1012.96 1013.26 1013.46 1013.55 1013.52 1013.41 1013.25 1013.10 1012.98 1012.92 1012.92 1012.97 1013.04 1013.12 1013.17 1013.18 1013.18 1013.16 1013.16 1013.21 1013.32 1013.51 1013.76 1014.06 1014.39 1014.70 1014.97 1015.19 1015.33 1015.40 1015.39 1015.30 1015.14 1014.92 1014.65 1014.35 1014.05 1013.77 1013.54
1011.28 1011.46 1011.75 1012.10 1012.44 1012.72 1012.88 1012.92 1012.85 1012.71 1012.53 1012.38 1012.30 1012.30 1012.39 1012.53 1012.71 1012.86 1012.98 1013.04 1013.06 1013.05 1013.05 1013.10 1013.21 1013.41 1013.68 1014.01 1014.36 1014.70 1014.99 1015.21 1015.33 1015.36 1015.29 1015.13 1014.89 1014.59 1014.23 1013.85 1013.47 1013.12 1012.83
1011.01 1011.12 1011.36 1011.65 1011.93 1012.15 1012.26 1012.25 1012.14 1011.96 1011.79 1011.66 1011.62 1011.69 1011.85 1012.08 1012.34 1012.57 1012.75 1012.86 1012.90 1012.91 1012.92 1012.97 1013.09 1013.29 1013.57 1013.91 1014.28 1014.63 1014.93 1015.15 1015.27 1015.27 1015.17 1014.97 1014.68 1014.31 1013.90 1013.46 1013.01 1012.60 1012.24
1010.97 1010.98 1011.11 1011.31 1011.50 1011.64 1011.68 1011.61 1011.46 1011.26 1011.09 1010.98 1010.98 1011.10 1011.32 1011.61 1011.93 1012.22 1012.45 1012.59 1012.67 1012.71 1012.73 1012.79 1012.92 1013.14 1013.43 1013.77 1014.15 1014.50 1014.81 1015.03 1015.15 1015.15 1015.04 1014.83 1014.52 1014.14 1013.70 1013.22 1012.73 1012.26 1011.84
1011.16 1011.05 1011.06 1011.14 1011.22 1011.26 1011.22 1011.09 1010.90 1010.69 1010.51 1010.41 1010.43 1010.58 1010.83 1011.15 1011.49 1011.81 1012.07 1012.25 1012.36 1012.43 1012.49 1012.58 1012.73 1012.96 1013.27 1013.62 1013.99 1014.35 1014.66 1014.88 1015.00 1015.02 1014.93 1014.74 1014.45 1014.09 1013.66 1013.18 1012.68 1012.17 1011.69
1011.55 1011.32 1011.21 1011.16 1011.13 1011.07 1010.95 1010.77 1010.54 1010.31 1010.12 1010.02 1010.03 1010.17 1010.41 1010.73 1011.06 1011.39 1011.65 1011.86 1012.00 1012.11 1012.21 1012.35 1012.54 1012.80 1013.12 1013.48 1013.85 1014.20 1014.50 1014.73 1014.87 1014.91 1014.86 1014.72 1014.49 1014.18 1013.79 1013.34 1012.85 1012.33 1011.82
1012.07 1011.74 1011.52 1011.36 1011.23 1011.08 1010.90 1010.67 1010.41 1010.16 1009.96 1009.84 1009.82 1009.92 1010.12 1010.39 1010.69 1010.99 1011.25 1011.47 1011.64 1011.80 1011.96 1012.14 1012.38 1012.67 1013.01 1013.37 1013.74 1014.08 1014.37 1014.60 1014.75 1014.83 1014.83 1014.76 1014.60 1014.37 1014.06 1013.67 1013.22 1012.72 1012.20
1012.65 1012.26 1011.95 1011.71 1011.50 1011.29 1011.06 1010.80 1010.53 1010.26 1010.03 1009.88 1009.82 1009.86 1009.99 1010.20 1010.43 1010.68 1010.92 1011.14 1011.34 1011.54 1011.75 1012.00 1012.28 1012.60 1012.95 1013.31 1013.66 1013.98 1014.26 1014.48 1014.65 1014.76 1014.82 1014.81 1014.75 1014.61 1014.40 1014.09 1013.71 1013.26 1012.77
1013.22 1012.79 1012.44 1012.15 1011.90 1011.66 1011.41 1011.14 1010.85 1010.57 1010.32 1010.14 1010.02 1010.00 1010.05 1010.17 1010.33 1010.52 1010.73 1010.94 1011.16 1011.39 1011.64 1011.92 1012.24 1012.58 1012.93 1013.28 1013.61 1013.90 1014.15 1014.36 1014.53 1014.67 1014.78 1014.85 1014.87 1014.83 1014.72 1014.51 1014.22 1013.85 1013.42
1013.70 1013.27 1012.92 1012.62 1012.37 1012.12 1011.87 1011.61 1011.33 1011.04 1010.78 1010.56 1010.40 1010.30 1010.28 1010.31 1010.40 1010.53 1010.70 1010.89 1011.10 1011.34 1011.62 1011.92 1012.25 1012.59 1012.93 1013.24 1013.53 1013.79 1014.01 1014.20 1014.36 1014.52 1014.66 1014.79 1014.89 1014.95 1014.93 1014.83 1014.64 1014.37 1014.03
1014.06 1013.67 1013.34 1013.07 1012.83 1012.61 1012.37 1012.13 1011.87 1011.59 1011.32 1011.08 1010.88 1010.73 1010.63 1010.60 1010.62 1010.69 1010.81 1010.96 1011.16 1011.39 1011.66 1011.96 1012.27 1012.58 1012.88 1013.16 1013.41 1013.62 1013.80 1013.97 1014.12 1014.29 1014.46 1014.63 1014.79 1014.91 1014.98 1014.98 1014.89 1014.72 1014.48
1014.31 1013.97 1013.69 1013.45 1013.25 1013.05 1012.85 1012.63 1012.39 1012.13 1011.87 1011.61 1011.38 1011.20 1011.06 1010.97 1010.93 1010.95 1011.02 1011.14 1011.29 1011.49 1011.73 1011.98 1012.25 1012.52 1012.78 1013.00 1013.20 1013.37 1013.52 1013.66 1013.81 1013.97 1014.15 1014.35 1014.54 1014.71 1014.85 1014.92 1014.91 1014.84 1014.71
1014.45 1014.17 1013.94 1013.75 1013.59 1013.43 1013.26 1013.07 1012.84 1012.60 1012.34 1012.09 1011.85 1011.64 1011.48 1011.35 1011.28 1011.25 1011.28 1011.34 1011.45 1011.59 1011.77 1011.97 1012.18 1012.39 1012.58 1012.76 1012.91 1013.05 1013.17 1013.30 1013.44 1013.60 1013.78 1013.98 1014.18 1014.38 1014.54 1014.66 1014.72 1014.72 1014.69
1014.54 1014.31 1014.13 1013.99 1013.86 1013.73 1013.58 1013.40 1013.19 1012.96 1012.71 1012.46 1012.22 1012.01 1011.83 1011.70 1011.59 1011.53 1011.51 1011.53 1011.58 1011.66 1011.76 1011.89 1012.03 1012.17 1012.31 1012.44 1012.56 1012.68 1012.79 1012.91 1013.05 1013.20 1013.38 1013.57 1013.76 1013.94 1014.11 1014.24 1014.34 1014.40 1014.44
1014.59 1014.42 1014.29 1014.18 1014.07 1013.96 1013.82 1013.64 1013.44 1013.21 1012.96 1012.72 1012.49 1012.28 1012.10 1011.96 1011.84 1011.76 1011.70 1011.66 1011.65 1011.66 1011.69 1011.74 1011.82 1011.90 1011.99 1012.09 1012.20 1012.31 1012.42 1012.55 1012.68 1012.83 1012.99 1013.15 1013.31 1013.47 1013.61 1013.73 1013.83 1013.92 1014.00
1014.67 1014.54 1014.44 1014.36 1014.27 1014.15 1014.00 1013.82 1013.61 1013.37 1013.12 1012.88 1012.66 1012.46 1012.28 1012.13 1012.01 1011.90 1011.81 1011.73 1011.66 1011.61 1011.58 1011.56 1011.57 1011.61 1011.67 1011.75 1011.85 1011.96 1012.09 1012.22 1012.35 1012.49 1012.63 1012.75 1012.87 1012.98 1013.08 1013.16 1013.25 1013.34 1013.46
1014.78 1014.69 1014.62 1014.55 1014.46 1014.34 1014.18 1013.98 1013.75 1013.50 1013.24 1012.99 1012.77 1012.57 1012.39 1012.24 1012.10 1011.98 1011.86 1011.74 1011.63 1011.52 1011.43 1011.37 1011.34 1011.34 1011.38 1011.45 1011.54 1011.66 1011.80 1011.93 1012.07 1012.19 1012.29 1012.38 1012.45 1012.50 1012.54 1012.59 1012.64 1012.73 1012.85
1014.94 1014.88 1014.83 1014.77 1014.68 1014.54 1014.37 1014.15 1013.90 1013.63 1013.36 1013.10 1012.87 1012.66 1012.48 1012.31 1012.16 1012.01 1011.87 1011.71 1011.56 1011.42 1011.29 1011.19 1011.13 1011.10 1011.12 1011.19 1011.28 1011.41 1011.54 1011.67 1011.79 1011.89 1011.96 1012.00 1012.02 1012.02 1012.01 1012.01 1012.04 1012.10 1012.22
1015.12 1015.09 1015.05 1015.00 1014.91 1014.76 1014.58 1014.34 1014.08 1013.79 1013.51 1013.24 1012.99 1012.77 1012.57 1012.38 1012.21 1012.03 1011.85 1011.67 1011.49 1011.31 1011.16 1011.03 1010.94 1010.90 1010.91 1010.96 1011.05 1011.16 1011.28 1011.40 1011.49 1011.56 1011.59 1011.59 1011.56 1011.51 1011.46 1011.43 1011.44 1011.49 1011.60
Thickness
5724 5723 5722 5721 5719 5718 5717 5716 5715 5714 5714 5713 5713 5713 5712 5712 5712 5711 5710 5711 5711 5711 5711 5710 5710 5709 5708 5707 5707 5706 5704 5704 5703 5702 5701 5700 5699 5699 5698 5698 5697 5696 5696
5720 5718 5717 5716 5715 5714 5713 5712 5711 5710 5709 5709 5709 5709 5709 5708 5708 5707 5708 5708 5708 5708 5708 5708 5708 5707 5707 5706 5706 5705 5703 5702 5702 5701 5700 5699 5698 5697 5696 5696 5695 5695 5694
5715 5713 5711 5710 5709 5708 5708 5707 5706 5706 5705 5705 5705 5704 5704 5704 5704 5704 5704 5704 5703 5704 5704 5704 5705 5705 5704 5704 5704 5703 5702 5701 5700 5700 5698 5698 5697 5696 5695 5694 5693 5693 5692
5709 5707 5705 5703 5703 5702 5702 5701 5700 5699 5698 5698 5698 5699 5699 5699 5699 5699 5700 5700 5700 5700 5701 5701 5701 5700 5701 5701 5701 5701 5700 5699 5698 5698 5697 5696 5695 5694 5693 5692 5692 5691 5690
5703 5701 5699 5698 5697 5696 5695 5694 5694 5693 5691 5691 5692 5694 5694 5694 5695 5695 5695 5696 5695 5696 5696 5697 5696 5696 5697 5697 5698 5698 5698 5697 5696 5695 5695 5694 5694 5693 5692 5690 5690 5689 5689
5697 5695 5693 5692 5691 5689 5687 5687 5686 5686 5684 5684 5686 5687 5688 5689 5690 5690 5690 5691 5690 5690 5691 5691 5692 5693 5693 5693 5694 5694 5694 5694 5694 5693 5692 5692 5692 5691 5690 5688 5687 5687 5686
5691 5689 5686 5684 5683 5681 5680 5679 5679 5677 5676 5677 5676 5676 5679 5681 5683 5684 5684 5684 5683 5684 5685 5686 5686 5687 5688 5688 5689 5689 5690 5690 5690 5689 5689 5689 5689 5688 5687 5686 5685 5685 5684
5684 5682 5679 5676 5675 5673 5672 5671 5670 5668 5667 5667 5664 5663 5663 5666 5671 5675 5675 5676 5676 5677 5678 5679 5680 5681 5682 5683 5683 5684 5684 5685 5685 5686 5686 5686 5686 5685 5684 5684 5683 5683 5682
5675 5673 5671 5669 5667 5665 5663 5662 5661 5659 5657 5657 5657 5654 5652 5652 5655 5662 5664 5666 5667 5669 5670 5672 5674 5675 5676 5677 5677 5678 5679 5680 5681 5681 5681 5681 5681 5681 5680 5680 5680 5680 5680
5667 5665 5662 5660 5659 5657 5655 5654 5653 5652 5650 5648 5648 5648 5647 5646 5645 5648 5653 5655 5658 5660 5662 5664 5667 5668 5669 5669 5670 5671 5672 5674 5675 5676 5676 5676 5675 5675 5676 5675 5675 5676 5676
5657 5656 5654 5652 5650 5649 5647 5646 5645 5644 5642 5640 5639 5639 5639 5638 5638 5637 5640 5644 5647 5650 5653 5656 5658 5660 5661 5662 5663 5665 5666 5667 5668 5669 5670 5670 5669 5670 5670 5670 5670 5670 5671
5648 5647 5645 5643 5641 5640 5638 5638 5637 5636 5634 5634 5633 5632 5631 5630 5629 5629 5630 5632 5635 5640 5644 5647 5649 5651 5653 5654 5656 5657 5659 5660 5661 5662 5663 5663 5664 5664 5664 5664 5664 5665 5666
5639 5638 5637 5635 5633 5631 5630 5630 5629 5628 5627 5626 5625 5625 5624 5624 5624 5623 5622 5623 5625 5629 5633 5636 5639 5641 5644 5646 5648 5650 5651 5653 5654 5655 5656 5657 5657 5657 5658 5658 5658 5659 5660
5632 5631 5629 5627 5625 5623 5622 5621 5620 5620 5619 5619 5618 5617 5616 5617 5617 5617 5616 5615 5615 5618 5621 5625 5629 5632 5635 5637 5639 5641 5643 5645 5646 5648 5649 5650 5651 5652 5652 5653 5653 5654 5654
5626 5624 5622 5620 5618 5616 5614 5613 5611 5611 5610 5610 5610 5609 5608 5609 5610 5610 5610 5610 5608 5608 5611 5615 5619 5623 5625 5627 5630 5632 5634 5637 5639 5641 5642 5643 5644 5645 5646 5646 5647 5647 5647
5619 5617 5615 5613 5611 5609 5607 5605 5604 5603 5602 5602 5602 5601 5601 5602 5602 5602 5602 5602 5602 5602 5602 5606 5609 5613 5616 5618 5620 5623 5626 5628 5631 5633 5635 5636 5637 5639 5639 5640 5640 5641 5641
5613 5610 5608 5606 5603 5601 5599 5598 5597 5596 5595 5594 5594 5594 5594 5594 5594 5594 5595 5595 5595 5595 5595 5598 5601 5604 5606 5609 5612 5614 5617 5620 5623 5626 5627 5629 5630 5631 5632 5632 5633 5634 5634
5606 5604 5602 5599 5597 5595 5593 5591 5590 5589 5588 5587 5587 5587 5587 5588 5587 5587 5587 5587 5587 5588 5588 5590 5592 5595 5598 5601 5603 5606 5609 5612 5616 5618 5620 5621 5623 5624 5624 5626 5626 5627 5627
5599 5597 5595 5593 5591 5589 5587 5585 5584 5583 5582 5581 5581 5581 5581 5581 5580 5579 5579 5579 5580 5582 5582 5583 5585 5587 5590 5593 5595 5598 5601 5604 5607 5609 5612 5613 5614 5616 5617 5618 5619 5620 5621
5593 5591 5589 5587 5585 5583 5581 5580 5578 5577 5576 5576 5576 5575 5575 5574 5574 5573 5574 5573 5574 5574 5575 5576 5578 5580 5582 5585 5586 5589 5592 5595 5598 5601 5604 5605 5607 5608 5610 5611 5612 5613 5614
5588 5587 5584 5582 5580 5578 5576 5575 5573 5572 5571 5570 5570 5570 5570 5570 5570 5569 5569 5568 5568 5568 5568 5570 5571 5573 5575 5577 5579 5582 5584 5587 5590 5593 5595 5598 5600 5601 5603 5605 5606 5607 5607
5583 5581 5579 5577 5575 5574 5572 5571 5569 5567 5566 5565 5565 5565 5565 5565 5565 5565 5565 5565 5564 5563 5563 5564 5566 5567 5569 5572 5574 5576 5577 5579 5582 5585 5586 5589 5592 5594 5597 5599 5600 5601 5601
5578 5576 5574 5572 5570 5569 5569 5567 5566 5564 5562 5561 5560 5560 5561 5561 5559 5559 5559 5560 5560 5561 5561 5560 5561 5563 5565 5567 5569 5570 5571 5573 5576 5579 5579 5582 5586 5588 5591 5593 5594 5594 5595
5573 5571 5570 5568 5567 5566 5566 5565 5563 5561 5558 5557 5556 5555 5554 5554 5555 5554 5554 5554 5554 5555 5557 5558 5559 5560 5561 5562 5563 5565 5566 5568 5570 5572 5575 5576 5580 5582 5585 5587 5588 5589 5589
5571 5569 5567 5566 5564 5563 5563 5562 5561 5557 5555 5553 5553 5552 5551 5550 5551 5550 5549 5549 5550 5551 5553 5554 5555 5556 5557 5558 5558 5559 5560 5561 5563 5566 5569 5571 5573 5576 5578 5581 5583 5584 5585
5568 5567 5565 5564 5562 5561 5561 5560 5558 5554 5551 5549 5549 5548 5548 5548 5547 5547 5545 5545 5545 5547 5548 5550 5551 5552 5553 5554 5555 5555 5556 5556 5557 5560 5565 5565 5567 5569 5571 5575 5578 5579 5579